Location: El Portezuelo
(28.4984°N, 16.3589°W)
Time: 19:42:53
(UTC+00:00)

Cosmos 2227 Rocket - Pass Details

Date: 20 January 2020
Orbit: 840 x 844 km, 71.0° (Epoch: 27 February)

Event Time Altitude Azimuth Distance (km) Brightness Sun altitude
Exits shadow 07:31:18 - 294° (WNW) 2,684 4.1 -6.4°
Reaches altitude 10° 07:32:40 10° 282° (WNW) 2,454 3.9 -6.1°
Maximum altitude 07:34:37 12° 262° (W) 2,325 4.0 -5.7°
Drops below altitude 10° 07:36:33 10° 241° (WSW) 2,451 4.2 -5.3°
Sets 07:40:45 0° 211° (SSW) 3,381 5.2 -4.4°
